Date,TemperatureHighF,TemperatureAvgF,TemperatureLowF,DewpointHighF,DewpointAvgF,DewpointLowF,HumidityHigh,HumidityAvg,HumidityLow,PressureMaxIn,PressureMinIn,WindSpeedMaxMPH,WindSpeedAvgMPH,GustSpeedMaxMPH,PrecipitationSumIn
2013-2-1,19,13,8,11,5,0,81,69,59,30.50,30.12,10,3,20,0.00
2013-2-2,32,24,12,28,20,7,91,84,76,30.42,30.08,10,2,14,0.00
2013-2-3,25,22,17,21,17,13,91,80,70,30.21,30.01,10,2,12,0.00
2013-2-4,35,27,16,34,24,14,97,89,71,30.20,29.90,5,1,10,0.01
2013-2-5,38,34,29,35,31,26,98,87,79,30.07,29.91,5,1,10,0.09
2013-2-6,38,35,30,33,29,27,89,80,70,30.32,30.07,7,1,17,0.00
2013-2-7,63,44,32,39,34,28,88,70,40,30.27,29.85,4,0,9,0.00
2013-2-8,53,39,33,46,33,25,93,80,61,30.37,29.83,9,4,19,0.09
2013-2-9,43,33,24,25,22,19,86,65,42,30.50,30.28,4,1,9,0.00
2013-2-10,56,44,31,46,32,22,92,66,42,30.29,29.85,12,2,15,0.03
2013-2-11,54,48,39,51,37,29,95,68,50,30.09,29.81,18,6,26,0.00
2013-2-12,51,40,29,30,28,25,87,64,39,30.19,29.96,9,2,11,0.00
2013-2-13,41,33,30,32,29,28,94,86,59,29.95,29.84,8,1,9,0.04
2013-2-14,55,41,30,40,34,29,96,80,53,30.05,29.88,12,3,17,0.02
2013-2-15,42,34,25,32,28,22,92,80,60,30.21,30.04,8,1,17,0.00
2013-2-16,30,24,19,22,17,11,94,73,52,30.21,30.11,9,2,16,0.00
2013-2-17,33,23,13,15,11,8,92,64,36,30.33,30.19,8,1,9,0.00
2013-2-18,61,41,23,41,26,11,83,56,42,30.29,29.80,12,3,25,0.05
2013-2-19,47,34,25,43,27,16,95,76,61,30.18,29.71,14,5,23,0.17
2013-2-20,30,24,20,17,14,12,79,66,54,30.38,30.19,8,2,13,0.00
2013-2-21,33,27,20,27,20,14,88,74,63,30.43,30.12,7,2,13,0.00
2013-2-22,44,36,30,39,34,27,98,92,81,30.14,29.96,8,1,16,0.05
2013-2-23,45,37,32,34,29,26,97,73,51,30.06,29.95,8,2,9,0.00
2013-2-24,44,34,27,27,25,22,87,71,51,30.21,29.99,8,2,11,0.00
2013-2-25,47,36,26,28,25,22,84,65,47,30.24,29.95,7,2,10,0.00
2013-2-26,50,42,36,49,38,25,97,85,62,29.95,29.40,7,2,23,0.76
2013-2-27,42,38,34,41,35,31,93,89,79,29.78,29.56,15,6,19,0.05
2013-2-28,37,35,33,34,32,30,94,88,84,30.01,29.75,10,3,14,0.01